{"data":{"norad_id":60508,"intl_designator":"2024-149AS","name":"EAGLEEYE","alt_names":[],"object_type":"PAYLOAD","status":"ACTIVE","operator":null,"country":"POL","launch_date":"2024-08-16","launch_site_code":"AFWTR","launch_vehicle":null,"mission":null,"orbit_class":"UNKNOWN","rcs_meters":null,"size_class":null,"mass_kg":null,"dimensions":null,"purposes":[],"wikipedia_slug":null,"has_3d_model":false,"image_url":null,"decayed_at":null,"tle_current":{"epoch":"2026-09-22T18:34:04.813248Z","epoch_age_seconds":89822,"freshness":"FRESH","line1":"1 60508U 24149AS  26265.77366682  .05346259  24782-5  76560-3 0  9994","line2":"2 60508  97.3391   6.7298 0012598 274.3837  85.6020 16.34601968118403","mean_motion":16.34601968,"eccentricity":0.0012598,"inclination_deg":97.3391,"raan_deg":6.7298,"arg_perigee_deg":274.3837,"mean_anomaly_deg":85.602,"bstar":0.0007656,"rev_number":11840,"period_min":88.094840712929,"perigee_km":171.93932378892,"apogee_km":188.46371352053,"semimajor_km":6558.3385186547,"source":"CELESTRAK","updated_at":"2026-09-23T09:00:20.660396Z"}}}